Location: Unspecified
(0.0000°N, 0.0000°E)
Time: 16:50:34
(UTC+00:00)

Amateur Radio Satellites - All Passes

Search period start: 26 March 2017 16:20
Search period end: 27 March 2017 16:20
Location: Unspecified, 0.0000°N, 0.0000°E

Satellite Date Start Highest point End Downlink Frequencies (MHz)
Time Altitude Azimuth
O/OREOS (USA 219) 26 Mar 16:27:53 16:30:01 13° 285° (WNW) 16:32:10 437.305
KKS-1 26 Mar 16:41:11 16:45:15 35° 282° (WNW) 16:49:20 437.445
AO-7 26 Mar 16:51:39 16:56:30 17° 253° (WSW) 17:01:22 .
XW-2D 26 Mar 16:54:55 16:55:48 11° 79° (E) 16:56:42 145.860 - 145.880
XW-2B 26 Mar 17:00:01 17:01:44 13° 79° (E) 17:03:27 145.730 - 145.750
XW-2C 26 Mar 17:09:11 17:11:53 18° 79° (E) 17:14:35 145.795 - 145.815
STARS 26 Mar 17:18:18 17:22:10 31° 282° (WNW) 17:26:02 437.465
ISS 26 Mar 17:19:16 17:22:22 43° 125° (SE) 17:25:28 437.550
Tancredo 1 26 Mar 17:20:28 17:23:33 57° 125° (SE) 17:26:37 437.200
DOVE 4 26 Mar 17:24:38 17:28:48 49° 78° (ENE) 17:33:09 437.250
JUGNU 26 Mar 17:38:27 17:43:09 23° 197° (SSW) 17:47:50 437.505
M-CUBED/EXP-1 PRIME 26 Mar 17:43:53 17:48:23 55° 105° (ESE) 17:52:44 437.505
YUBILEINY 26 Mar 17:47:20 17:54:00 25° 87° (E) 18:00:40 435.215
AO-85 26 Mar 17:49:11 17:51:45 14° 114° (ESE) 17:54:13 145.980
SRMSAT 26 Mar 17:50:06 17:56:04 81° 201° (SSW) 18:02:02 437.500
CUTE-I 26 Mar 17:57:44 18:03:07 83° 77° (ENE) 18:08:28 437.470
XW-2F 26 Mar 18:00:09 18:03:58 64° 258° (WSW) 18:07:44 145.980 - 146.000
LilacSat-2 26 Mar 18:01:09 18:04:56 55° 258° (WSW) 18:08:43 437.200
NUDT-PHONESAT 26 Mar 18:26:40 18:29:59 29° 258° (WSW) 18:33:17 437.300
XW-2D 26 Mar 18:26:42 18:29:44 22° 259° (WSW) 18:32:45 145.860 - 145.880
XW-2B 26 Mar 18:32:53 18:35:39 19° 258° (WSW) 18:38:25 145.730 - 145.750
KAITUO 1B 26 Mar 18:33:59 18:37:02 23° 258° (WSW) 18:40:03 145.475/437.950
STRAND 1 26 Mar 18:35:31 18:40:12 38° 103° (ESE) 18:44:53 437.568
PCSat 26 Mar 18:37:46 18:39:23 11° 70° (ENE) 18:41:00 145.827
CUBEBUG 2 26 Mar 18:39:39 18:40:26 10° 78° (ENE) 18:41:14 437.445
XW-2A 26 Mar 18:41:34 18:44:48 37° 79° (E) 18:48:01 145.665 - 145.685
XW-2C 26 Mar 18:43:56 18:45:49 13° 258° (WSW) 18:47:41 145.795 - 145.815
SEEDS 26 Mar 18:50:20 18:53:36 22° 79° (ENE) 18:56:50 437.485
CUTE 1.7 + AOD 2 26 Mar 18:56:00 19:00:06 48° 79° (ENE) 19:04:10 437.475
HO-68 26 Mar 19:02:50 19:09:57 67° 76° (ENE) 19:17:02 435.675
AO-85 26 Mar 19:27:38 19:32:02 32° 291° (WNW) 19:36:10 145.980
JUGNU 26 Mar 19:30:44 19:32:57 12° 189° (S) 19:35:09 437.505
UWE-3 26 Mar 19:39:05 19:43:26 40° 79° (ENE) 19:47:47 435.000/436.395/437.385
SRMSAT 26 Mar 19:40:13 19:45:22 30° 199° (SSW) 19:50:31 437.500
YUBILEINY 26 Mar 19:42:23 19:50:22 42° 267° (W) 19:58:29 435.215
AAUSAT CUBESAT 2 26 Mar 20:09:46 20:13:49 58° 258° (WSW) 20:17:51 437.432
CUBEBUG 2 26 Mar 20:12:23 20:16:43 38° 258° (WSW) 20:21:07 437.445
Oscar 11 26 Mar 20:13:22 20:17:27 40° 79° (ENE) 20:21:31 .
BEESAT 3 26 Mar 20:15:44 20:19:29 58° 112° (ESE) 20:23:17 437.485
STRAND 1 26 Mar 20:17:05 20:19:05 12° 283° (WNW) 20:21:06 437.568
PCSat 26 Mar 20:17:23 20:22:31 45° 251° (WSW) 20:27:40 145.827
ZACube-1 26 Mar 20:19:58 20:24:33 75° 78° (ENE) 20:29:07 437.345
SEEDS 26 Mar 20:26:54 20:29:00 14° 258° (WSW) 20:31:07 437.485
BEESAT 2 26 Mar 20:31:37 20:34:53 26° 111° (ESE) 20:38:09 435.950
AO-73 26 Mar 20:48:35 20:53:00 48° 259° (WSW) 20:57:23 145.935
UNISAT 6 26 Mar 20:53:14 20:55:29 14° 102° (ESE) 20:57:45 437.425
HO-68 26 Mar 20:54:51 20:57:16 12° 254° (WSW) 20:59:42 435.675
DELFI C3 26 Mar 21:29:56 21:33:49 65° 258° (WSW) 21:37:41 145.870
SRMSAT 26 Mar 21:32:04 21:35:07 14° 192° (SSW) 21:38:10 437.500
FO-29 26 Mar 21:32:54 21:37:13 26° 102° (ESE) 21:41:27 435.910
PRISM 26 Mar 21:40:00 21:43:52 39° 282° (WNW) 21:47:47 437.425
RS-15 26 Mar 21:43:28 21:53:32 33° 68° (ENE) 22:03:07 29.354- 29.394
TIGRISAT 26 Mar 22:17:56 22:21:47 33° 282° (WNW) 22:25:38 435.000
UNISAT 6 26 Mar 22:28:39 22:31:57 22° 282° (WNW) 22:35:15 437.425
ESTCUBE 1 26 Mar 22:32:14 22:35:58 26° 78° (ENE) 22:39:41 437.505/2401.250
AIST 2D 26 Mar 22:33:44 22:36:42 27° 101° (E) 22:39:42 435.315
NANOSAT C BR1 26 Mar 22:53:37 22:57:03 25° 102° (ESE) 23:00:28 145.865
EO-79 26 Mar 22:57:53 23:01:38 32° 102° (ESE) 23:05:23 145.935-145.965
LO-87 26 Mar 23:04:59 23:08:10 31° 259° (W) 23:11:22 145.935 - 145.965
JUGNU 26 Mar 23:09:57 23:13:13 15° 168° (SSE) 23:16:27 437.505
FO-29 26 Mar 23:18:43 23:22:04 17° 283° (WNW) 23:25:23 435.910
POLYITAN 1 26 Mar 23:25:34 23:29:44 89° 100° (E) 23:33:56 437.675
QB50P2 26 Mar 23:30:11 23:34:22 70° 282° (WNW) 23:38:33 145.880/145.840
DUCHIFAT 1 26 Mar 23:42:20 23:46:26 66° 282° (WNW) 23:50:35 145.980
VELOX 1 26 Mar 23:43:58 23:48:17 57° 78° (ENE) 23:52:35 145.980
RS-15 26 Mar 23:54:44 00:05:30 44° 250° (WSW) 00:15:52 29.354- 29.394
BUGSAT 1 26 Mar 23:58:26 00:02:20 46° 102° (ESE) 00:06:13 437.445
50 SAT 27 Mar 00:00:35 00:03:58 56° 79° (E) 00:07:20 437.505
UKube-1 27 Mar 00:02:04 00:05:11 20° 78° (ENE) 00:08:16 .
ESTCUBE 1 27 Mar 00:10:15 00:12:29 14° 258° (WSW) 00:14:43 437.505/2401.250
SO-50 27 Mar 00:18:34 00:22:47 40° 68° (ENE) 00:27:03 436.795
SPROUT 27 Mar 00:27:57 00:31:54 37° 258° (WSW) 00:35:51 437.525
NANOSAT C BR1 27 Mar 00:30:53 00:32:29 12° 282° (WNW) 00:34:06 145.865
DX 1 27 Mar 00:57:08 01:01:09 39° 258° (WSW) 01:05:11 434.975-435.025
JUGNU 27 Mar 00:57:31 01:02:44 33° 161° (SSE) 01:07:56 437.505
SRMSAT 27 Mar 01:13:16 01:15:43 13° 170° (S) 01:18:10 437.500
Oscar 19 27 Mar 01:18:30 01:23:39 71° 282° (WNW) 01:28:51 437.125/150
Gurwin Techsat 1B 27 Mar 01:33:50 01:39:09 84° 104° (ESE) 01:44:28 435.225
UKube-1 27 Mar 01:38:11 01:40:56 17° 257° (WSW) 01:43:41 .
BEESAT 27 Mar 01:45:54 01:49:23 20° 77° (ENE) 01:52:50 436.000
ITUPSAT 1 27 Mar 02:01:27 02:05:42 31° 78° (ENE) 02:09:56 437.325
JUGNU 27 Mar 02:45:57 02:51:50 89° 156° (SSE) 02:57:42 437.505
O/OREOS (USA 219) 27 Mar 02:57:33 03:01:54 44° 76° (ENE) 03:06:15 437.305
SRMSAT 27 Mar 03:00:46 03:05:36 25° 163° (SSE) 03:10:26 437.500
ITAMSAT 1 27 Mar 03:05:49 03:10:58 75° 282° (WNW) 03:16:08 435.822/435.867
KKS-1 27 Mar 03:18:56 03:21:22 15° 78° (ENE) 03:23:49 437.445
NO-84 27 Mar 03:21:31 03:24:32 29° 124° (SE) 03:27:21 435.350 FM
AO-7 27 Mar 03:22:08 03:30:25 85° 287° (WNW) 03:38:46 .
BEESAT 27 Mar 03:23:18 03:26:52 21° 257° (WSW) 03:30:26 436.000
MOZHAYETS 4 27 Mar 03:37:29 03:41:48 38° 258° (WSW) 03:46:04
ITUPSAT 1 27 Mar 03:40:58 03:43:14 13° 257° (WSW) 03:45:30 437.325
STARS 27 Mar 03:54:14 03:56:51 16° 78° (ENE) 03:59:28 437.465
CUBESAT XI-V 27 Mar 04:30:04 04:34:42 78° 258° (WSW) 04:39:16 437.345
JUGNU 27 Mar 04:35:41 04:40:55 33° 341° (NNW) 04:46:09 437.505
SRMSAT 27 Mar 04:49:04 04:54:58 65° 159° (SSE) 05:00:54 437.500
Tancredo 1 27 Mar 04:52:03 04:54:53 30° 54° (NE) 04:57:45 437.200
ISS 27 Mar 04:53:21 04:56:11 26° 55° (NE) 04:59:00 437.550
KKS-1 27 Mar 04:54:05 04:57:39 24° 258° (WSW) 05:01:14 437.445
CUTE-I 27 Mar 04:59:33 05:02:38 16° 103° (ESE) 05:05:42 437.470
XW-2C 27 Mar 05:03:26 05:05:30 14° 102° (ESE) 05:07:34 145.795 - 145.815
STARS 27 Mar 05:29:30 05:32:55 22° 258° (WSW) 05:36:20 437.465
M-CUBED/EXP-1 PRIME 27 Mar 05:43:48 05:46:57 40° 74° (ENE) 05:50:15 437.505
DOVE 4 27 Mar 05:44:51 05:50:00 82° 282° (WNW) 05:54:54 437.250
XW-2F 27 Mar 05:53:24 05:57:08 84° 281° (W) 06:00:53 145.980 - 146.000
LilacSat-2 27 Mar 05:55:25 05:59:09 69° 281° (W) 06:02:55 437.200
AO-85 27 Mar 06:00:21 06:03:30 20° 70° (ENE) 06:06:49 145.980
NUDT-PHONESAT 27 Mar 06:18:03 06:21:30 39° 281° (W) 06:24:58 437.300
YUBILEINY 27 Mar 06:19:16 06:27:40 50° 93° (E) 06:35:59 435.215
XW-2D 27 Mar 06:20:05 06:23:17 27° 281° (WNW) 06:26:32 145.860 - 145.880
XW-2A 27 Mar 06:25:09 06:27:32 18° 101° (ESE) 06:29:55 145.665 - 145.685
KAITUO 1B 27 Mar 06:26:00 06:29:15 30° 281° (W) 06:32:31 145.475/437.950
XW-2B 27 Mar 06:26:14 06:29:14 23° 281° (W) 06:32:16 145.730 - 145.750
JUGNU 27 Mar 06:27:07 06:30:25 15° 348° (NNW) 06:33:43 437.505
XW-2C 27 Mar 06:37:05 06:39:25 16° 281° (W) 06:41:47 145.795 - 145.815
CUTE-I 27 Mar 06:37:40 06:42:23 33° 283° (WNW) 06:47:07 437.470
SRMSAT 27 Mar 06:38:31 06:44:12 46° 340° (NNW) 06:49:55 437.500
CUBEBUG 2 27 Mar 06:50:54 06:52:48 13° 102° (ESE) 06:54:40 437.445
HO-68 27 Mar 06:54:26 07:01:25 56° 104° (ESE) 07:08:25 435.675
SEEDS 27 Mar 06:55:05 06:58:37 26° 102° (ESE) 07:02:10 437.485
CUTE 1.7 + AOD 2 27 Mar 07:02:03 07:06:13 60° 102° (ESE) 07:10:26 437.475
STRAND 1 27 Mar 07:07:40 07:12:50 84° 255° (WSW) 07:17:59 437.568
PCSat 27 Mar 07:10:40 07:15:35 36° 109° (ESE) 07:20:29 145.827
AO-85 27 Mar 07:40:52 07:43:41 17° 246° (WSW) 07:46:38 145.980
UWE-3 27 Mar 07:50:27 07:54:30 53° 101° (ESE) 07:58:32 435.000/436.395/437.385
BEESAT 3 27 Mar 08:07:30 08:11:22 60° 68° (ENE) 08:15:14 437.485
AAUSAT CUBESAT 2 27 Mar 08:13:05 08:17:07 51° 281° (WNW) 08:21:12 437.432
YUBILEINY 27 Mar 08:18:05 08:24:02 20° 273° (W) 08:30:01 435.215
Oscar 11 27 Mar 08:21:47 08:25:59 55° 102° (ESE) 08:30:13 .
BEESAT 2 27 Mar 08:24:33 08:28:00 28° 68° (ENE) 08:31:27 435.950
CUBEBUG 2 27 Mar 08:25:52 08:29:10 22° 282° (WNW) 08:32:26 437.445
SRMSAT 27 Mar 08:29:33 08:33:45 19° 345° (NNW) 08:37:56 437.500
ZACube-1 27 Mar 08:30:05 08:34:12 78° 281° (W) 08:38:20 437.345
SEEDS 27 Mar 08:32:35 08:34:02 12° 281° (WNW) 08:35:30 437.485
HO-68 27 Mar 08:45:00 08:48:46 15° 285° (WNW) 08:52:35 435.675
TIGRISAT 27 Mar 08:55:27 08:58:20 16° 78° (ENE) 09:01:13 435.000
PCSat 27 Mar 08:55:49 08:58:42 15° 290° (WNW) 09:01:36 145.827
AO-73 27 Mar 08:58:36 09:02:17 32° 281° (WNW) 09:06:00 145.935
FO-29 27 Mar 09:04:04 09:09:41 22° 76° (ENE) 09:15:18 435.910
UNISAT 6 27 Mar 09:04:53 09:08:39 24° 78° (ENE) 09:12:26 437.425
RS-15 27 Mar 09:25:26 09:34:23 27° 111° (ESE) 09:43:34 29.354- 29.394
DELFI C3 27 Mar 09:28:02 09:32:01 70° 280° (W) 09:36:01 145.870
PRISM 27 Mar 09:42:48 09:46:30 35° 258° (WSW) 09:50:12 437.425
JUGNU 27 Mar 10:08:37 10:10:40 12° 8° (N) 10:12:43 437.505
AIST 2D 27 Mar 10:20:35 10:22:55 17° 79° (E) 10:25:15 435.315
SRMSAT 27 Mar 10:22:21 10:23:50 11° 354° (N) 10:25:19 437.500
TIGRISAT 27 Mar 10:30:55 10:34:44 25° 258° (WSW) 10:38:33 435.000
UNISAT 6 27 Mar 10:42:07 10:45:05 17° 258° (WSW) 10:48:02 437.425
ESTCUBE 1 27 Mar 10:45:38 10:49:53 41° 102° (ESE) 10:54:09 437.505/2401.250
FO-29 27 Mar 10:46:55 10:54:15 49° 257° (WSW) 11:01:45 435.910
LO-87 27 Mar 10:52:40 10:56:11 52° 281° (W) 10:59:42 145.935 - 145.965
NANOSAT C BR1 27 Mar 10:58:57 11:02:42 30° 78° (ENE) 11:06:27 145.865
SPROUT 27 Mar 11:02:26 11:03:21 11° 102° (ESE) 11:04:15 437.525
EO-79 27 Mar 11:03:39 11:07:40 40° 78° (ENE) 11:11:40 145.935-145.965
POLYITAN 1 27 Mar 11:31:41 11:35:58 74° 258° (WSW) 11:40:14 437.675
DX 1 27 Mar 11:33:16 11:34:46 12° 103° (ESE) 11:36:17 434.975-435.025
RS-15 27 Mar 11:35:16 11:46:17 55° 291° (WNW) 11:57:55 29.354- 29.394
QB50P2 27 Mar 11:36:25 11:40:37 56° 259° (WSW) 11:44:48 145.880/145.840
50 SAT 27 Mar 11:45:52 11:48:59 30° 102° (ESE) 11:52:06 437.505
DUCHIFAT 1 27 Mar 11:47:38 11:51:48 54° 258° (WSW) 11:55:56 145.980
AIST 2D 27 Mar 11:54:30 11:55:52 12° 259° (WSW) 11:57:13 435.315
VELOX 1 27 Mar 11:55:17 11:59:44 85° 102° (ESE) 12:04:11 145.980
JUGNU 27 Mar 11:55:50 12:00:28 23° 17° (NNE) 12:05:05 437.505
BUGSAT 1 27 Mar 12:01:09 12:05:13 52° 78° (ENE) 12:09:18 437.445
UKube-1 27 Mar 12:09:56 12:13:31 25° 102° (ESE) 12:17:05 .
SRMSAT 27 Mar 12:13:03 12:14:14 11° 5° (N) 12:15:25 437.500
Oscar 19 27 Mar 12:14:58 12:18:22 18° 77° (ENE) 12:21:46 437.125/150
SO-50 27 Mar 12:30:52 12:35:36 80° 113° (ESE) 12:40:18 436.795
Gurwin Techsat 1B 27 Mar 12:34:58 12:38:01 15° 77° (ENE) 12:41:03 435.225
SPROUT 27 Mar 12:35:18 12:38:59 29° 282° (WNW) 12:42:40 437.525
NANOSAT C BR1 27 Mar 12:37:51 12:38:08 10° 258° (WSW) 12:38:26 145.865
DX 1 27 Mar 13:06:54 13:10:40 29° 282° (WNW) 13:14:28 434.975-435.025
JUGNU 27 Mar 13:43:52 13:49:44 57° 21° (NNE) 13:55:38 437.505
UKube-1 27 Mar 13:47:18 13:49:15 13° 282° (WNW) 13:51:13 .
Oscar 19 27 Mar 13:53:09 13:57:25 27° 257° (WSW) 14:01:40 437.125/150
AO-7 27 Mar 13:58:57 14:04:34 20° 73° (ENE) 14:10:07 .
SRMSAT 27 Mar 14:00:21 14:04:22 18° 14° (NNE) 14:08:23 437.500
ITAMSAT 1 27 Mar 14:03:19 14:06:48 18° 77° (ENE) 14:10:16 435.822/435.867
BEESAT 27 Mar 14:06:45 14:11:07 37° 102° (ESE) 14:15:30 436.000
Gurwin Techsat 1B 27 Mar 14:12:56 14:17:41 33° 257° (WSW) 14:22:25 435.225
MOZHAYETS 4 27 Mar 14:18:35 14:21:26 16° 102° (ESE) 14:24:16
ITUPSAT 1 27 Mar 14:23:09 14:27:50 62° 102° (ESE) 14:32:32 437.325
NO-84 27 Mar 15:04:40 15:08:00 29° 59° (ENE) 15:11:37 435.350 FM
O/OREOS (USA 219) 27 Mar 15:08:23 15:12:52 78° 105° (ESE) 15:17:21 437.305
KKS-1 27 Mar 15:30:21 15:33:44 21° 102° (ESE) 15:37:07 437.445
JUGNU 27 Mar 15:32:59 15:38:48 52° 201° (SSW) 15:44:39 437.505
ITAMSAT 1 27 Mar 15:41:33 15:45:58 28° 257° (WSW) 15:50:24 435.822/435.867
BEESAT 27 Mar 15:47:46 15:48:37 10° 283° (WNW) 15:49:28 436.000
SRMSAT 27 Mar 15:48:19 15:53:57 42° 20° (NNE) 15:59:34 437.500
AO-7 27 Mar 15:48:51 15:56:56 54° 254° (WSW) 16:04:59 .
MOZHAYETS 4 27 Mar 15:54:45 15:58:18 23° 282° (WNW) 16:01:53
STARS 27 Mar 16:04:14 16:07:36 22° 102° (ESE) 16:10:56 437.465
